Regional Weather Roundup
Issued by NWS

Home | Current Version | Previous Version | Graphics & Text | Print | Product List | Glossary On
Versions: 1 2 3 4 5 6 7 8 9 10 11 12 13 14 15 16 17 18 19 20 21 22 23 24 25 26 27 28 29 30 31 32 33 34 35 36 37 38 39 40 41 42 43 44 45 46 47 48 49 50
000
ASUS43 KFSD 010310
RWRSD

WEATHER ROUNDUP FOR SOUTH DAKOTA
NATIONAL WEATHER SERVICE SIOUX FALLS SD
1000 PM CDT TUE JUN 30 2015

NOTE: "FAIR" INDICATES FEW OR NO CLOUDS BELOW 12,000 FEET WITH NO
SIGNIFICANT WEATHER AND/OR OBSTRUCTIONS TO VISIBILITY.


SDZ001>005-009-010-012>017-010400-
NORTHWEST AND NORTH CENTRAL SOUTH DAKOTA

CITY           SKY/WX    TMP DP  RH WIND       PRES   REMARKS
BUFFALO          N/A     71  60  68 E15G29    29.82R
MOBRIDGE       MOCLDY    68  68 100 E9        29.86R FOG
$$

SDZ012>016-024>037-041>051-057-063-072>074-010400-
SOUTHWEST AND SOUTH CENTRAL SOUTH DAKOTA

CITY           SKY/WX    TMP DP  RH WIND       PRES   REMARKS
RAPID CTY ARPT CLEAR     72  68  87 SE5       29.90R
PIERRE         MOCLDY    69  63  81 SE8       29.84R
CUSTER         CLEAR     70  62  76 CALM      30.08R
ELLSWORTH AFB  CLEAR     74  71  91 SE6       29.90R
PHILIP         PTCLDY    70  65  84 E8        29.86R
PINE RIDGE     PTCLDY    73  67  81 NE5       29.91R
SPEARFISH      FAIR      72  63  73 SW8       29.95S
WINNER         FAIR      72  61  68 SE15      29.86S
$$

SDZ004>011-016>023-039-040-010400-
NORTHEAST SOUTH DAKOTA

CITY           SKY/WX    TMP DP  RH WIND       PRES   REMARKS
ABERDEEN       MOCLDY    69  65  86 NE3       29.88S
WATERTOWN      MOCLDY    67  61  81 SE6       29.91R
BROOKINGS      MOCLDY    68  61  77 E12       29.92S
SISSETON         N/A     66  59  78 SE5       29.89R
$$

SDZ017-020-022-023-036>040-048>070-010400-
SOUTHEAST SOUTH DAKOTA

CITY           SKY/WX    TMP DP  RH WIND       PRES   REMARKS
SIOUX FALLS    CLOUDY    68  65  90 SE3       29.90R
HURON          LGT RAIN  69  68  96 CALM      29.88R FOG
CHAMBERLAIN    MOCLDY    68  64  87 SE8       29.87R
MITCHELL       CLOUDY    69  68  96 SE8       29.87F
YANKTON        CLOUDY    68  66  94 S7        29.87F
$$

ABBREVIATIONS USED IN REMARKS
   TC - TEMPERATURE IN CELSIUS
  WCI - WIND CHILL INDEX
   HX - HEAT INDEX
  VSB - VISIBILITY



USA.gov is the U.S. government's official web portal to all federal, state and local government web resources and services.